Location: Schommer Observatory
(40.5200°N, 74.4500°W)
Time: 04:20:02
(UTC-04:00)

Envisat - Visible Passes

Search period start: 22 May 2018 00:00
Search period end: 01 June 2018 00:00
Orbit: 764 x 766 km, 98.2° (Epoch: 21 May)

Date Brightness Start Highest point End Pass type
(mag) Time Alt. Az. Time Alt. Az. Time Alt. Az.
22 May 4.5 20:56:22 10° SSW 21:01:01 37° W 21:05:43 10° NNW visible
24 May 5.4 21:23:00 10° SW 21:26:46 21° W 21:30:35 10° NW visible
25 May 4.1 20:44:57 10° S 20:49:49 46° W 20:54:43 10° NNW visible
26 May 5.8 21:51:00 10° WSW 21:52:38 11° W 21:54:16 10° WNW visible
27 May 5.0 21:11:19 10° SSW 21:15:32 26° W 21:19:48 10° NW visible
29 May 5.6 21:38:31 10° SW 21:41:21 15° W 21:44:12 10° NW visible
30 May 4.7 20:59:45 10° SSW 21:04:19 33° W 21:08:54 10° NNW visible
